Time,TemperatureF,DewpointF,PressureIn,WindDirection,WindDirectionDegrees,WindSpeedMPH,WindSpeedGustMPH,Humidity,HourlyPrecipIn,Conditions,Clouds,dailyrainin,SoftwareType,DateUTC
2013-01-26 00:00:00,53.2,38.4,30.27,NNW,338,1.1,1.3,57,0.00,,,0.00,VWS V14.01,2013-01-26 05:00:00,
2013-01-26 00:01:00,53.2,38.0,30.27,WNW,292,0.0,0.0,56,0.00,,,0.00,VWS V14.01,2013-01-26 05:01:00,
2013-01-26 00:06:00,53.2,38.4,30.24,North,0,1.3,1.3,57,0.00,,,0.00,VWS V14.01,2013-01-26 05:06:00,
2013-01-26 00:11:00,53.6,39.2,30.24,NNW,338,1.3,1.3,58,0.00,,,0.00,VWS V14.01,2013-01-26 05:11:00,
2013-01-26 00:17:00,53.6,39.2,30.24,NNW,338,0.0,0.0,58,0.00,,,0.00,VWS V14.01,2013-01-26 05:17:00,
2013-01-26 00:22:00,53.4,39.0,30.27,NNW,338,1.1,1.1,58,0.00,,,0.00,VWS V14.01,2013-01-26 05:22:00,
2013-01-26 00:27:00,53.4,39.0,30.27,NNW,338,0.0,0.0,58,0.00,,,0.00,VWS V14.01,2013-01-26 05:27:00,
2013-01-26 00:32:00,53.4,39.5,30.27,North,0,0.0,0.0,59,0.00,,,0.00,VWS V14.01,2013-01-26 05:32:00,
2013-01-26 00:37:00,53.4,39.0,30.27,NNW,338,0.9,0.9,58,0.00,,,0.00,VWS V14.01,2013-01-26 05:37:00,
2013-01-26 00:42:00,53.6,39.6,30.27,NW,315,0.0,0.0,59,0.00,,,0.00,VWS V14.01,2013-01-26 05:42:00,
2013-01-26 00:47:00,53.8,40.2,30.27,WNW,292,0.9,1.3,60,0.00,,,0.00,VWS V14.01,2013-01-26 05:47:00,
2013-01-26 00:52:00,53.8,40.2,30.27,WNW,292,1.3,1.3,60,0.00,,,0.00,VWS V14.01,2013-01-26 05:52:00,
2013-01-26 00:57:00,54.0,40.4,30.27,NNW,338,0.0,0.0,60,0.00,,,0.00,VWS V14.01,2013-01-26 05:57:00,
2013-01-26 01:02:00,54.5,41.3,30.27,WNW,292,1.6,2.2,61,0.00,,,0.00,VWS V14.01,2013-01-26 06:02:00,
2013-01-26 01:07:00,54.7,42.8,30.27,NNW,338,1.3,2.2,64,0.00,,,0.00,VWS V14.01,2013-01-26 06:07:00,
2013-01-26 01:12:00,55.0,44.3,30.27,West,270,2.0,2.9,67,0.00,,,0.00,VWS V14.01,2013-01-26 06:12:00,
2013-01-26 01:17:00,55.2,44.5,30.27,North,0,2.7,2.7,67,0.00,,,0.00,VWS V14.01,2013-01-26 06:17:00,
2013-01-26 01:22:00,55.9,47.4,30.27,West,270,2.7,4.0,73,0.00,,,0.00,VWS V14.01,2013-01-26 06:22:00,
2013-01-26 01:27:00,56.3,48.8,30.27,West,270,3.8,3.8,76,0.00,,,0.00,VWS V14.01,2013-01-26 06:27:00,
2013-01-26 01:32:00,56.7,49.5,30.27,West,270,3.8,3.8,77,0.00,,,0.00,VWS V14.01,2013-01-26 06:32:00,
2013-01-26 01:37:00,57.0,50.2,30.27,West,270,3.1,3.6,78,0.00,,,0.00,VWS V14.01,2013-01-26 06:37:00,
2013-01-26 01:42:00,57.2,50.1,30.27,WNW,292,1.1,2.7,77,0.00,,,0.00,VWS V14.01,2013-01-26 06:42:00,
2013-01-26 01:47:00,57.4,50.2,30.27,West,270,2.2,2.2,77,0.00,,,0.00,VWS V14.01,2013-01-26 06:47:00,
2013-01-26 01:52:00,57.4,49.9,30.27,WNW,292,1.3,2.9,76,0.00,,,0.00,VWS V14.01,2013-01-26 06:52:00,
2013-01-26 01:57:00,57.4,49.5,30.27,West,270,2.7,3.1,75,0.00,,,0.00,VWS V14.01,2013-01-26 06:57:00,
2013-01-26 02:02:00,57.4,49.5,30.27,West,270,2.7,2.7,75,0.00,,,0.00,VWS V14.01,2013-01-26 07:02:00,
2013-01-26 02:07:00,57.2,49.4,30.27,West,270,2.5,2.7,75,0.00,,,0.00,VWS V14.01,2013-01-26 07:07:00,
2013-01-26 02:12:00,57.4,49.9,30.27,WNW,292,2.9,3.4,76,0.00,,,0.00,VWS V14.01,2013-01-26 07:12:00,
2013-01-26 02:17:00,57.2,49.4,30.27,West,270,3.6,3.6,75,0.00,,,0.00,VWS V14.01,2013-01-26 07:17:00,
2013-01-26 02:22:00,57.0,48.8,30.24,WNW,292,2.0,2.7,74,0.00,,,0.00,VWS V14.01,2013-01-26 07:22:00,
2013-01-26 02:27:00,57.2,49.7,30.24,WSW,248,3.1,3.1,76,0.00,,,0.00,VWS V14.01,2013-01-26 07:27:00,
2013-01-26 02:32:00,57.2,49.7,30.24,NW,315,2.2,3.8,76,0.00,,,0.00,VWS V14.01,2013-01-26 07:32:00,
2013-01-26 02:37:00,57.2,49.4,30.27,West,270,1.3,2.7,75,0.00,,,0.00,VWS V14.01,2013-01-26 07:37:00,
2013-01-26 02:42:00,57.2,49.4,30.27,WNW,292,2.5,2.5,75,0.00,,,0.00,VWS V14.01,2013-01-26 07:42:00,
2013-01-26 02:47:00,57.2,49.4,30.27,West,270,1.6,1.6,75,0.00,,,0.00,VWS V14.01,2013-01-26 07:47:00,
2013-01-26 02:52:00,57.2,48.6,30.27,WNW,292,2.7,2.7,73,0.00,,,0.00,VWS V14.01,2013-01-26 07:52:00,
2013-01-26 02:57:00,57.2,49.0,30.27,WNW,292,2.0,2.2,74,0.00,,,0.00,VWS V14.01,2013-01-26 07:57:00,
2013-01-26 03:02:00,57.0,48.5,30.27,West,270,0.9,1.1,73,0.00,,,0.00,VWS V14.01,2013-01-26 08:02:00,
2013-01-26 03:07:00,57.0,48.5,30.27,West,270,2.2,2.2,73,0.00,,,0.00,VWS V14.01,2013-01-26 08:07:00,
2013-01-26 03:12:00,57.0,48.5,30.27,West,270,2.0,3.1,73,0.00,,,0.00,VWS V14.01,2013-01-26 08:12:00,
2013-01-26 03:17:00,57.0,48.5,30.27,West,270,2.7,2.7,73,0.00,,,0.00,VWS V14.01,2013-01-26 08:17:00,
2013-01-26 03:22:00,56.8,47.9,30.24,West,270,2.5,3.4,72,0.00,,,0.00,VWS V14.01,2013-01-26 08:22:00,
2013-01-26 03:27:00,56.7,47.8,30.24,West,270,2.5,3.4,72,0.00,,,0.00,VWS V14.01,2013-01-26 08:27:00,
2013-01-26 03:32:00,56.7,48.5,30.27,West,270,1.3,2.5,74,0.00,,,0.00,VWS V14.01,2013-01-26 08:32:00,
2013-01-26 03:37:00,56.5,47.2,30.27,WSW,248,1.3,1.6,71,0.00,,,0.00,VWS V14.01,2013-01-26 08:37:00,
2013-01-26 03:42:00,56.5,47.2,30.27,WNW,292,2.0,2.7,71,0.00,,,0.00,VWS V14.01,2013-01-26 08:42:00,
2013-01-26 03:47:00,56.5,47.6,30.27,WSW,248,3.1,3.1,72,0.00,,,0.00,VWS V14.01,2013-01-26 08:47:00,
2013-01-26 03:52:00,56.3,47.0,30.27,NNW,338,2.7,2.7,71,0.00,,,0.00,VWS V14.01,2013-01-26 08:52:00,
2013-01-26 03:57:00,56.5,47.6,30.27,NNE,22,1.3,1.3,72,0.00,,,0.00,VWS V14.01,2013-01-26 08:57:00,
2013-01-26 04:02:00,56.3,46.7,30.27,West,270,1.3,1.3,70,0.00,,,0.00,VWS V14.01,2013-01-26 09:02:00,
2013-01-26 04:07:00,56.3,46.7,30.27,West,270,1.6,1.6,70,0.00,,,0.00,VWS V14.01,2013-01-26 09:07:00,
2013-01-26 04:12:00,56.1,45.3,30.27,NNW,338,2.0,2.0,67,0.00,,,0.00,VWS V14.01,2013-01-26 09:12:00,
2013-01-26 04:17:00,56.1,45.7,30.27,WSW,248,1.6,2.7,68,0.00,,,0.00,VWS V14.01,2013-01-26 09:17:00,
2013-01-26 04:22:00,55.9,45.2,30.27,West,270,0.0,0.9,67,0.00,,,0.00,VWS V14.01,2013-01-26 09:22:00,
2013-01-26 04:27:00,55.9,45.2,30.27,West,270,2.5,2.7,67,0.00,,,0.00,VWS V14.01,2013-01-26 09:27:00,
2013-01-26 04:32:00,56.3,46.7,30.27,West,270,2.5,2.5,70,0.00,,,0.00,VWS V14.01,2013-01-26 09:32:00,
2013-01-26 04:37:00,56.3,46.7,30.27,West,270,2.2,3.4,70,0.00,,,0.00,VWS V14.01,2013-01-26 09:37:00,
2013-01-26 04:42:00,56.3,46.7,30.27,NW,315,1.6,1.6,70,0.00,,,0.00,VWS V14.01,2013-01-26 09:42:00,
2013-01-26 04:48:00,56.3,47.0,30.24,West,270,2.5,2.5,71,0.00,,,0.00,VWS V14.01,2013-01-26 09:48:00,
2013-01-26 04:53:00,56.3,46.7,30.24,NW,315,2.5,2.5,70,0.00,,,0.00,VWS V14.01,2013-01-26 09:53:00,
2013-01-26 04:58:00,56.3,46.3,30.24,NNW,338,2.0,2.5,69,0.00,,,0.00,VWS V14.01,2013-01-26 09:58:00,
2013-01-26 05:03:00,56.3,46.7,30.24,West,270,2.2,2.2,70,0.00,,,0.00,VWS V14.01,2013-01-26 10:03:00,
2013-01-26 05:08:00,56.1,46.1,30.27,NNW,338,2.7,2.7,69,0.00,,,0.00,VWS V14.01,2013-01-26 10:08:00,
2013-01-26 05:13:00,56.1,46.5,30.27,WNW,292,1.6,2.0,70,0.00,,,0.00,VWS V14.01,2013-01-26 10:13:00,
2013-01-26 05:18:00,56.1,46.1,30.27,WNW,292,0.9,2.2,69,0.00,,,0.00,VWS V14.01,2013-01-26 10:18:00,
2013-01-26 05:23:00,55.9,45.5,30.27,WNW,292,1.3,2.0,68,0.00,,,0.00,VWS V14.01,2013-01-26 10:23:00,
2013-01-26 05:28:00,55.8,45.4,30.27,West,270,1.3,2.0,68,0.00,,,0.00,VWS V14.01,2013-01-26 10:28:00,
2013-01-26 05:33:00,55.6,44.8,30.27,West,270,1.3,2.0,67,0.00,,,0.00,VWS V14.01,2013-01-26 10:33:00,
2013-01-26 05:38:00,55.2,44.1,30.27,WNW,292,1.3,1.3,66,0.00,,,0.00,VWS V14.01,2013-01-26 10:38:00,
2013-01-26 05:43:00,54.9,43.3,30.27,West,270,0.0,1.3,65,0.00,,,0.00,VWS V14.01,2013-01-26 10:43:00,
2013-01-26 05:48:00,54.7,42.8,30.27,WNW,292,1.1,1.3,64,0.00,,,0.00,VWS V14.01,2013-01-26 10:48:00,
2013-01-26 05:53:00,54.5,42.6,30.27,WNW,292,0.0,0.9,64,0.00,,,0.00,VWS V14.01,2013-01-26 10:53:00,
2013-01-26 05:58:00,54.3,42.4,30.27,WSW,248,0.0,0.0,64,0.00,,,0.00,VWS V14.01,2013-01-26 10:58:00,
2013-01-26 06:03:00,54.5,44.9,30.27,WNW,292,1.3,1.3,70,0.00,,,0.00,VWS V14.01,2013-01-26 11:03:00,
2013-01-26 06:08:00,54.1,43.8,30.27,WNW,292,0.0,0.0,68,0.00,,,0.00,VWS V14.01,2013-01-26 11:08:00,
2013-01-26 06:13:00,53.4,40.3,30.27,WNW,292,0.0,0.0,61,0.00,,,0.00,VWS V14.01,2013-01-26 11:13:00,
2013-01-26 06:18:00,53.1,40.4,30.27,WNW,292,0.0,0.0,62,0.00,,,0.00,VWS V14.01,2013-01-26 11:18:00,
2013-01-26 06:23:00,52.5,39.0,30.27,ENE,68,2.0,2.0,60,0.00,,,0.00,VWS V14.01,2013-01-26 11:23:00,
2013-01-26 06:28:00,52.3,39.7,30.27,ESE,112,2.5,2.5,62,0.00,,,0.00,VWS V14.01,2013-01-26 11:28:00,
2013-01-26 06:33:00,52.3,40.9,30.27,SE,135,0.9,1.3,65,0.00,,,0.00,VWS V14.01,2013-01-26 11:33:00,
2013-01-26 06:38:00,52.0,41.0,30.27,ENE,68,1.6,2.0,66,0.00,,,0.00,VWS V14.01,2013-01-26 11:38:00,
2013-01-26 06:43:00,51.8,40.8,30.27,ENE,68,1.6,2.0,66,0.00,,,0.00,VWS V14.01,2013-01-26 11:43:00,
2013-01-26 06:48:00,51.6,40.7,30.24,East,90,2.0,2.5,66,0.00,,,0.00,VWS V14.01,2013-01-26 11:48:00,
2013-01-26 06:53:00,51.6,41.0,30.24,ENE,68,1.3,1.3,67,0.00,,,0.00,VWS V14.01,2013-01-26 11:53:00,
2013-01-26 06:58:00,51.4,40.9,30.24,ENE,68,2.2,2.2,67,0.00,,,0.00,VWS V14.01,2013-01-26 11:58:00,
2013-01-26 07:03:00,51.1,40.5,30.24,ENE,68,1.3,1.3,67,0.00,,,0.00,VWS V14.01,2013-01-26 12:03:00,
2013-01-26 07:08:00,51.1,40.9,30.24,ENE,68,1.1,1.1,68,0.00,,,0.00,VWS V14.01,2013-01-26 12:08:00,
2013-01-26 07:13:00,50.9,40.7,30.24,ENE,68,0.0,0.0,68,0.00,,,0.00,VWS V14.01,2013-01-26 12:13:00,
2013-01-26 07:18:00,50.7,40.9,30.27,ENE,68,0.0,0.0,69,0.00,,,0.00,VWS V14.01,2013-01-26 12:18:00,
2013-01-26 07:23:00,50.7,41.3,30.27,ENE,68,1.6,1.6,70,0.00,,,0.00,VWS V14.01,2013-01-26 12:23:00,
2013-01-26 07:28:00,50.4,40.6,30.27,ENE,68,1.1,1.3,69,0.00,,,0.00,VWS V14.01,2013-01-26 12:28:00,
2013-01-26 07:33:00,50.5,41.5,30.27,ENE,68,0.0,0.0,71,0.00,,,0.00,VWS V14.01,2013-01-26 12:33:00,
2013-01-26 07:38:00,50.5,41.9,30.30,ENE,68,0.0,0.0,72,0.00,,,0.00,VWS V14.01,2013-01-26 12:38:00,
2013-01-26 07:43:00,50.5,42.2,30.30,ENE,68,0.0,0.0,73,0.00,,,0.00,VWS V14.01,2013-01-26 12:43:00,
2013-01-26 07:48:00,51.1,43.4,30.27,NNE,22,0.9,1.1,75,0.00,,,0.00,VWS V14.01,2013-01-26 12:48:00,
2013-01-26 07:53:00,51.8,44.5,30.27,NNE,22,1.3,1.3,76,0.00,,,0.00,VWS V14.01,2013-01-26 12:53:00,
2013-01-26 07:58:00,53.1,46.0,30.27,NNE,22,0.0,0.0,77,0.00,,,0.00,VWS V14.01,2013-01-26 12:58:00,
2013-01-26 08:04:00,54.0,46.9,30.30,NNE,22,0.0,0.0,77,0.00,,,0.00,VWS V14.01,2013-01-26 13:04:00,
2013-01-26 08:08:00,55.0,48.3,30.30,NNE,22,0.0,0.0,78,0.00,,,0.00,VWS V14.01,2013-01-26 13:08:00,
2013-01-26 08:14:00,55.6,48.8,30.30,NNE,22,0.0,0.0,78,0.00,,,0.00,VWS V14.01,2013-01-26 13:14:00,
2013-01-26 08:19:00,56.7,49.9,30.30,East,90,1.6,2.5,78,0.00,,,0.00,VWS V14.01,2013-01-26 13:19:00,
2013-01-26 08:24:00,57.6,50.8,30.30,East,90,1.6,2.2,78,0.00,,,0.00,VWS V14.01,2013-01-26 13:24:00,
2013-01-26 08:29:00,58.5,52.0,30.30,East,90,2.0,2.2,79,0.00,,,0.00,VWS V14.01,2013-01-26 13:29:00,
2013-01-26 08:34:00,59.5,52.7,30.30,ENE,68,0.0,0.9,78,0.00,,,0.00,VWS V14.01,2013-01-26 13:34:00,
2013-01-26 08:39:00,61.0,54.1,30.30,ENE,68,1.3,1.3,78,0.00,,,0.00,VWS V14.01,2013-01-26 13:39:00,
2013-01-26 08:44:00,61.7,54.8,30.30,ESE,112,1.3,1.6,78,0.00,,,0.00,VWS V14.01,2013-01-26 13:44:00,
2013-01-26 08:49:00,63.0,56.0,30.30,East,90,2.0,2.2,78,0.00,,,0.00,VWS V14.01,2013-01-26 13:49:00,
2013-01-26 08:54:00,63.5,56.5,30.30,ESE,112,2.7,2.9,78,0.00,,,0.00,VWS V14.01,2013-01-26 13:54:00,
2013-01-26 08:59:00,63.9,56.5,30.30,ESE,112,3.4,3.4,77,0.00,,,0.00,VWS V14.01,2013-01-26 13:59:00,
2013-01-26 09:04:00,64.8,49.2,30.30,East,90,2.7,2.9,57,0.00,,,0.00,VWS V14.01,2013-01-26 14:04:00,
2013-01-26 09:09:00,65.8,49.2,30.30,East,90,0.0,1.6,55,0.00,,,0.00,VWS V14.01,2013-01-26 14:09:00,
2013-01-26 09:14:00,66.4,46.7,30.30,ESE,112,2.9,3.4,49,0.00,,,0.00,VWS V14.01,2013-01-26 14:14:00,
2013-01-26 09:19:00,67.1,43.9,30.30,SE,135,3.4,3.4,43,0.00,,,0.00,VWS V14.01,2013-01-26 14:19:00,
2013-01-26 09:24:00,67.5,43.0,30.30,SE,135,2.9,2.9,41,0.00,,,0.00,VWS V14.01,2013-01-26 14:24:00,
2013-01-26 09:29:00,67.6,41.8,30.30,SE,135,4.0,4.0,39,0.00,,,0.00,VWS V14.01,2013-01-26 14:29:00,
2013-01-26 09:34:00,68.2,41.6,30.33,ESE,112,4.0,4.0,38,0.00,,,0.00,VWS V14.01,2013-01-26 14:34:00,
2013-01-26 09:39:00,68.4,39.7,30.33,SSE,158,3.4,5.6,35,0.00,,,0.00,VWS V14.01,2013-01-26 14:39:00,
2013-01-26 09:44:00,68.4,39.7,30.33,SE,135,3.4,4.9,35,0.00,,,0.00,VWS V14.01,2013-01-26 14:44:00,
2013-01-26 09:49:00,68.5,39.1,30.33,SSE,158,3.8,5.4,34,0.00,,,0.00,VWS V14.01,2013-01-26 14:49:00,
2013-01-26 09:54:00,69.1,39.6,30.33,SSE,158,4.0,4.3,34,0.00,,,0.00,VWS V14.01,2013-01-26 14:54:00,
2013-01-26 09:59:00,69.4,39.9,30.33,SSE,158,5.4,5.4,34,0.00,,,0.00,VWS V14.01,2013-01-26 14:59:00,
2013-01-26 10:04:00,69.8,39.4,30.33,ESE,112,4.9,4.9,33,0.00,,,0.00,VWS V14.01,2013-01-26 15:04:00,
2013-01-26 10:09:00,69.8,38.6,30.33,SE,135,4.0,7.2,32,0.00,,,0.00,VWS V14.01,2013-01-26 15:09:00,
2013-01-26 10:14:00,69.8,38.6,30.33,SSE,158,4.9,4.9,32,0.00,,,0.00,VWS V14.01,2013-01-26 15:14:00,
2013-01-26 10:19:00,70.2,39.0,30.30,SE,135,2.7,3.8,32,0.00,,,0.00,VWS V14.01,2013-01-26 15:19:00,
2013-01-26 10:24:00,70.9,39.6,30.30,SSE,158,5.6,5.8,32,0.00,,,0.00,VWS V14.01,2013-01-26 15:24:00,
2013-01-26 10:29:00,71.6,37.7,30.30,ESE,112,3.4,3.6,29,0.00,,,0.00,VWS V14.01,2013-01-26 15:29:00,
2013-01-26 10:34:00,72.7,38.6,30.30,SE,135,1.6,3.8,29,0.00,,,0.00,VWS V14.01,2013-01-26 15:34:00,
2013-01-26 10:39:00,72.9,37.9,30.30,South,180,3.6,3.6,28,0.00,,,0.00,VWS V14.01,2013-01-26 15:39:00,
2013-01-26 10:44:00,74.5,36.4,30.30,South,180,1.6,1.6,25,0.00,,,0.00,VWS V14.01,2013-01-26 15:44:00,
2013-01-26 10:49:00,76.1,37.8,30.33,SE,135,0.9,0.9,25,0.00,,,0.00,VWS V14.01,2013-01-26 15:49:00,
2013-01-26 10:54:00,78.3,37.5,30.33,ENE,68,1.1,1.6,23,0.00,,,0.00,VWS V14.01,2013-01-26 15:54:00,
2013-01-26 10:59:00,79.7,37.5,30.33,WSW,248,4.0,4.0,22,0.00,,,0.00,VWS V14.01,2013-01-26 15:59:00,
2013-01-26 11:04:00,79.3,36.0,30.33,SW,225,1.6,2.5,21,0.00,,,0.00,VWS V14.01,2013-01-26 16:04:00,
2013-01-26 11:09:00,79.9,35.3,30.33,South,180,1.6,2.0,20,0.00,,,0.00,VWS V14.01,2013-01-26 16:09:00,
2013-01-26 11:14:00,79.7,31.1,30.33,West,270,1.1,1.1,17,0.00,,,0.00,VWS V14.01,2013-01-26 16:14:00,
2013-01-26 11:19:00,81.7,32.7,30.33,SW,225,1.1,1.1,17,0.00,,,0.00,VWS V14.01,2013-01-26 16:19:00,
2013-01-26 11:24:00,80.1,28.3,30.33,West,270,7.8,8.7,15,0.00,,,0.00,VWS V14.01,2013-01-26 16:24:00,
2013-01-26 11:29:00,74.7,25.5,30.33,WNW,292,3.6,3.6,16,0.00,,,0.00,VWS V14.01,2013-01-26 16:29:00,
2013-01-26 11:34:00,75.9,25.0,30.36,West,270,2.9,3.8,15,0.00,,,0.00,VWS V14.01,2013-01-26 16:34:00,
2013-01-26 11:39:00,77.9,26.6,30.36,North,0,3.4,3.4,15,0.00,,,0.00,VWS V14.01,2013-01-26 16:39:00,
2013-01-26 11:44:00,77.4,26.1,30.36,West,270,4.0,6.5,15,0.00,,,0.00,VWS V14.01,2013-01-26 16:44:00,
2013-01-26 11:49:00,77.2,26.0,30.33,WNW,292,4.0,7.8,15,0.00,,,0.00,VWS V14.01,2013-01-26 16:49:00,
2013-01-26 11:54:00,78.4,27.0,30.33,North,0,3.4,3.4,15,0.00,,,0.00,VWS V14.01,2013-01-26 16:54:00,
2013-01-26 11:59:00,78.6,23.7,30.33,SW,225,3.4,3.4,13,0.00,,,0.00,VWS V14.01,2013-01-26 16:59:00,
2013-01-26 12:04:00,78.1,26.7,30.30,West,270,4.0,4.0,15,0.00,,,0.00,VWS V14.01,2013-01-26 17:04:00,
2013-01-26 12:09:00,79.3,27.7,30.30,WNW,292,2.5,2.5,15,0.00,,,0.00,VWS V14.01,2013-01-26 17:09:00,
2013-01-26 12:14:00,81.0,27.3,30.30,West,270,2.9,2.9,14,0.00,,,0.00,VWS V14.01,2013-01-26 17:14:00,
2013-01-26 12:20:00,76.5,25.4,30.30,West,270,3.1,3.1,15,0.00,,,0.00,VWS V14.01,2013-01-26 17:20:00,
2013-01-26 12:24:00,78.1,23.3,30.30,WNW,292,3.8,4.9,13,0.00,,,0.00,VWS V14.01,2013-01-26 17:24:00,
2013-01-26 12:30:00,79.5,22.5,30.30,West,270,2.7,3.6,12,0.00,,,0.00,VWS V14.01,2013-01-26 17:30:00,
2013-01-26 12:35:00,79.7,22.6,30.30,NNW,338,3.6,3.6,12,0.00,,,0.00,VWS V14.01,2013-01-26 17:35:00,
2013-01-26 12:40:00,79.2,22.2,30.30,WSW,248,3.1,3.1,12,0.00,,,0.00,VWS V14.01,2013-01-26 17:40:00,
2013-01-26 12:45:00,79.5,22.5,30.30,WNW,292,5.8,5.8,12,0.00,,,0.00,VWS V14.01,2013-01-26 17:45:00,
2013-01-26 12:50:00,76.5,22.0,30.30,West,270,2.7,5.6,13,0.00,,,0.00,VWS V14.01,2013-01-26 17:50:00,
2013-01-26 12:55:00,76.5,25.4,30.30,West,270,4.3,4.3,15,0.00,,,0.00,VWS V14.01,2013-01-26 17:55:00,
2013-01-26 13:00:00,78.1,23.3,30.30,NNW,338,4.3,7.6,13,0.00,,,0.00,VWS V14.01,2013-01-26 18:00:00,
2013-01-26 13:05:00,76.5,22.0,30.27,NNW,338,2.7,4.0,13,0.00,,,0.00,VWS V14.01,2013-01-26 18:05:00,
2013-01-26 13:10:00,75.7,21.5,30.27,WNW,292,5.8,6.3,13,0.00,,,0.00,VWS V14.01,2013-01-26 18:10:00,
2013-01-26 13:15:00,76.3,21.9,30.27,West,270,6.3,8.1,13,0.00,,,0.00,VWS V14.01,2013-01-26 18:15:00,
2013-01-26 13:20:00,76.8,25.7,30.27,NNE,22,5.8,6.5,15,0.00,,,0.00,VWS V14.01,2013-01-26 18:20:00,
2013-01-26 13:25:00,76.3,25.3,30.27,West,270,7.8,7.8,15,0.00,,,0.00,VWS V14.01,2013-01-26 18:25:00,
2013-01-26 13:30:00,75.9,25.0,30.27,NNW,338,2.0,2.0,15,0.00,,,0.00,VWS V14.01,2013-01-26 18:30:00,
2013-01-26 13:35:00,76.5,22.0,30.27,West,270,7.8,7.8,13,0.00,,,0.00,VWS V14.01,2013-01-26 18:35:00,
2013-01-26 13:40:00,76.5,22.0,30.27,West,270,6.5,6.5,13,0.00,,,0.00,VWS V14.01,2013-01-26 18:40:00,
2013-01-26 13:45:00,76.5,25.4,30.27,WSW,248,9.6,9.6,15,0.00,,,0.00,VWS V14.01,2013-01-26 18:45:00,
2013-01-26 13:50:00,76.1,25.1,30.27,South,180,4.9,9.4,15,0.00,,,0.00,VWS V14.01,2013-01-26 18:50:00,
2013-01-26 13:55:00,77.0,25.9,30.27,West,270,3.4,5.4,15,0.00,,,0.00,VWS V14.01,2013-01-26 18:55:00,
2013-01-26 14:00:00,77.9,26.6,30.27,WSW,248,5.8,5.8,15,0.00,,,0.00,VWS V14.01,2013-01-26 19:00:00,
2013-01-26 14:05:00,77.0,25.9,30.27,WSW,248,6.3,6.3,15,0.00,,,0.00,VWS V14.01,2013-01-26 19:05:00,
2013-01-26 14:10:00,75.9,25.0,30.27,West,270,9.8,9.8,15,0.00,,,0.00,VWS V14.01,2013-01-26 19:10:00,
2013-01-26 14:15:00,76.1,25.1,30.27,WNW,292,4.0,4.0,15,0.00,,,0.00,VWS V14.01,2013-01-26 19:15:00,
2013-01-26 14:20:00,76.1,25.1,30.24,West,270,7.6,7.6,15,0.00,,,0.00,VWS V14.01,2013-01-26 19:20:00,
2013-01-26 14:25:00,76.6,25.6,30.24,West,270,10.1,10.1,15,0.00,,,0.00,VWS V14.01,2013-01-26 19:25:00,
2013-01-26 14:30:00,75.9,25.0,30.24,WSW,248,8.7,8.7,15,0.00,,,0.00,VWS V14.01,2013-01-26 19:30:00,
2013-01-26 14:35:00,75.7,24.9,30.24,West,270,6.0,6.0,15,0.00,,,0.00,VWS V14.01,2013-01-26 19:35:00,
2013-01-26 14:40:00,76.3,25.3,30.24,WSW,248,7.6,7.8,15,0.00,,,0.00,VWS V14.01,2013-01-26 19:40:00,
2013-01-26 14:45:00,75.2,24.4,30.24,West,270,9.8,9.8,15,0.00,,,0.00,VWS V14.01,2013-01-26 19:45:00,
2013-01-26 14:50:00,75.7,24.9,30.24,NW,315,5.4,7.2,15,0.00,,,0.00,VWS V14.01,2013-01-26 19:50:00,
2013-01-26 14:55:00,75.4,24.6,30.24,WSW,248,7.8,7.8,15,0.00,,,0.00,VWS V14.01,2013-01-26 19:55:00,
2013-01-26 15:00:00,74.8,25.7,30.24,West,270,4.9,10.1,16,0.00,,,0.00,VWS V14.01,2013-01-26 20:00:00,
2013-01-26 15:05:00,75.7,24.9,30.24,West,270,9.0,9.0,15,0.00,,,0.00,VWS V14.01,2013-01-26 20:05:00,
2013-01-26 15:11:00,75.4,24.6,30.24,SW,225,4.9,6.5,15,0.00,,,0.00,VWS V14.01,2013-01-26 20:11:00,
2013-01-26 15:16:00,75.4,24.6,30.24,North,0,3.8,6.5,15,0.00,,,0.00,VWS V14.01,2013-01-26 20:16:00,
2013-01-26 15:21:00,75.6,24.7,30.21,West,270,8.7,8.7,15,0.00,,,0.00,VWS V14.01,2013-01-26 20:21:00,
2013-01-26 15:26:00,74.7,25.5,30.21,West,270,6.0,8.1,16,0.00,,,0.00,VWS V14.01,2013-01-26 20:26:00,
2013-01-26 15:31:00,75.2,24.4,30.21,NNW,338,4.0,4.0,15,0.00,,,0.00,VWS V14.01,2013-01-26 20:31:00,
2013-01-26 15:36:00,74.8,28.5,30.21,West,270,7.4,8.7,18,0.00,,,0.00,VWS V14.01,2013-01-26 20:36:00,
2013-01-26 15:41:00,75.0,25.8,30.21,WNW,292,6.5,6.5,16,0.00,,,0.00,VWS V14.01,2013-01-26 20:41:00,
2013-01-26 15:46:00,74.7,25.5,30.21,WSW,248,6.5,8.1,16,0.00,,,0.00,VWS V14.01,2013-01-26 20:46:00,
2013-01-26 15:51:00,75.0,25.8,30.21,NNW,338,3.4,5.4,16,0.00,,,0.00,VWS V14.01,2013-01-26 20:51:00,
2013-01-26 15:56:00,75.0,25.8,30.21,WNW,292,7.6,7.6,16,0.00,,,0.00,VWS V14.01,2013-01-26 20:56:00,
2013-01-26 16:01:00,75.2,28.8,30.21,NNW,338,6.9,6.9,18,0.00,,,0.00,VWS V14.01,2013-01-26 21:01:00,
2013-01-26 16:06:00,74.7,25.5,30.24,North,0,5.8,6.7,16,0.00,,,0.00,VWS V14.01,2013-01-26 21:06:00,
2013-01-26 16:11:00,74.7,28.4,30.24,West,270,8.7,10.1,18,0.00,,,0.00,VWS V14.01,2013-01-26 21:11:00,
2013-01-26 16:16:00,73.8,27.6,30.24,West,270,6.0,7.4,18,0.00,,,0.00,VWS V14.01,2013-01-26 21:16:00,
2013-01-26 16:21:00,74.1,27.9,30.21,WNW,292,4.3,5.8,18,0.00,,,0.00,VWS V14.01,2013-01-26 21:21:00,
2013-01-26 16:26:00,73.0,28.4,30.21,West,270,8.5,8.5,19,0.00,,,0.00,VWS V14.01,2013-01-26 21:26:00,
2013-01-26 16:31:00,72.3,30.2,30.21,NNE,22,3.1,6.5,21,0.00,,,0.00,VWS V14.01,2013-01-26 21:31:00,
2013-01-26 16:36:00,71.2,30.5,30.21,West,270,5.8,8.7,22,0.00,,,0.00,VWS V14.01,2013-01-26 21:36:00,
2013-01-26 16:41:00,69.6,30.2,30.21,West,270,7.8,8.1,23,0.00,,,0.00,VWS V14.01,2013-01-26 21:41:00,
2013-01-26 16:46:00,69.1,30.8,30.21,West,270,5.4,5.4,24,0.00,,,0.00,VWS V14.01,2013-01-26 21:46:00,
2013-01-26 16:51:00,68.7,30.5,30.24,West,270,3.8,5.4,24,0.00,,,0.00,VWS V14.01,2013-01-26 21:51:00,
2013-01-26 16:56:00,69.4,32.1,30.24,WNW,292,3.8,7.8,25,0.00,,,0.00,VWS V14.01,2013-01-26 21:56:00,
2013-01-26 17:01:00,69.6,32.3,30.24,West,270,4.0,4.0,25,0.00,,,0.00,VWS V14.01,2013-01-26 22:01:00,
2013-01-26 17:06:00,68.7,31.5,30.27,WSW,248,3.8,3.8,25,0.00,,,0.00,VWS V14.01,2013-01-26 22:06:00,
2013-01-26 17:11:00,68.9,31.7,30.27,SW,225,4.9,4.9,25,0.00,,,0.00,VWS V14.01,2013-01-26 22:11:00,
2013-01-26 17:16:00,69.3,32.0,30.27,West,270,5.6,5.6,25,0.00,,,0.00,VWS V14.01,2013-01-26 22:16:00,
2013-01-26 17:21:00,69.8,31.4,30.24,North,0,3.4,3.4,24,0.00,,,0.00,VWS V14.01,2013-01-26 22:21:00,
2013-01-26 17:26:00,69.8,31.4,30.24,West,270,4.7,5.6,24,0.00,,,0.00,VWS V14.01,2013-01-26 22:26:00,
2013-01-26 17:31:00,69.4,31.1,30.24,WNW,292,3.1,3.4,24,0.00,,,0.00,VWS V14.01,2013-01-26 22:31:00,
2013-01-26 17:36:00,68.9,31.7,30.24,WNW,292,2.9,2.9,25,0.00,,,0.00,VWS V14.01,2013-01-26 22:36:00,
2013-01-26 17:41:00,68.2,32.0,30.24,NW,315,3.1,4.0,26,0.00,,,0.00,VWS V14.01,2013-01-26 22:41:00,
2013-01-26 17:46:00,67.8,32.7,30.24,NNW,338,2.0,2.0,27,0.00,,,0.00,VWS V14.01,2013-01-26 22:46:00,
2013-01-26 17:51:00,67.3,34.0,30.24,NNW,338,2.7,2.7,29,0.00,,,0.00,VWS V14.01,2013-01-26 22:51:00,
2013-01-26 17:56:00,66.7,33.5,30.24,NNW,338,1.1,1.6,29,0.00,,,0.00,VWS V14.01,2013-01-26 22:56:00,
2013-01-26 18:01:00,66.4,34.0,30.24,WNW,292,2.0,2.5,30,0.00,,,0.00,VWS V14.01,2013-01-26 23:01:00,
2013-01-26 18:06:00,66.0,36.1,30.27,WNW,292,2.5,3.4,33,0.00,,,0.00,VWS V14.01,2013-01-26 23:06:00,
2013-01-26 18:11:00,65.7,35.8,30.27,WSW,248,2.0,2.9,33,0.00,,,0.00,VWS V14.01,2013-01-26 23:11:00,
2013-01-26 18:16:00,65.1,35.3,30.27,NNW,338,1.1,2.5,33,0.00,,,0.00,VWS V14.01,2013-01-26 23:16:00,
2013-01-26 18:21:00,64.9,35.9,30.27,West,270,2.5,2.7,34,0.00,,,0.00,VWS V14.01,2013-01-26 23:21:00,
2013-01-26 18:26:00,64.6,35.6,30.27,West,270,2.5,2.5,34,0.00,,,0.00,VWS V14.01,2013-01-26 23:26:00,
2013-01-26 18:31:00,64.4,36.2,30.27,West,270,2.9,2.9,35,0.00,,,0.00,VWS V14.01,2013-01-26 23:31:00,
2013-01-26 18:36:00,64.0,36.6,30.27,SW,225,1.1,1.1,36,0.00,,,0.00,VWS V14.01,2013-01-26 23:36:00,
2013-01-26 18:41:00,63.9,36.4,30.27,WSW,248,2.7,2.7,36,0.00,,,0.00,VWS V14.01,2013-01-26 23:41:00,
2013-01-26 18:46:00,63.7,37.6,30.27,West,270,2.5,2.5,38,0.00,,,0.00,VWS V14.01,2013-01-26 23:46:00,
2013-01-26 18:52:00,63.5,38.1,30.27,West,270,2.9,2.9,39,0.00,,,0.00,VWS V14.01,2013-01-26 23:52:00,
2013-01-26 18:56:00,63.1,39.1,30.27,WSW,248,1.1,2.5,41,0.00,,,0.00,VWS V14.01,2013-01-26 23:56:00,
2013-01-26 19:02:00,63.0,38.9,30.27,NNW,338,1.3,1.6,41,0.00,,,0.00,VWS V14.01,2013-01-27 00:02:00,
2013-01-26 19:07:00,62.8,38.8,30.27,WNW,292,2.9,2.9,41,0.00,,,0.00,VWS V14.01,2013-01-27 00:07:00,
2013-01-26 19:12:00,62.8,40.6,30.27,WNW,292,1.6,1.6,44,0.00,,,0.00,VWS V14.01,2013-01-27 00:12:00,
2013-01-26 19:17:00,62.6,41.0,30.27,West,270,2.7,2.7,45,0.00,,,0.00,VWS V14.01,2013-01-27 00:17:00,
2013-01-26 19:22:00,62.6,41.5,30.30,WNW,292,2.0,2.9,46,0.00,,,0.00,VWS V14.01,2013-01-27 00:22:00,
2013-01-26 19:27:00,62.4,41.4,30.30,West,270,1.6,1.6,46,0.00,,,0.00,VWS V14.01,2013-01-27 00:27:00,
2013-01-26 19:32:00,62.1,40.5,30.30,West,270,1.1,1.1,45,0.00,,,0.00,VWS V14.01,2013-01-27 00:32:00,
2013-01-26 19:37:00,61.9,40.9,30.27,WNW,292,1.1,2.5,46,0.00,,,0.00,VWS V14.01,2013-01-27 00:37:00,
2013-01-26 19:42:00,61.7,40.2,30.27,NNE,22,1.6,2.0,45,0.00,,,0.00,VWS V14.01,2013-01-27 00:42:00,
2013-01-26 19:47:00,61.7,40.7,30.27,NNW,338,0.0,0.0,46,0.00,,,0.00,VWS V14.01,2013-01-27 00:47:00,
2013-01-26 19:52:00,61.3,40.4,30.27,WNW,292,1.3,1.3,46,0.00,,,0.00,VWS V14.01,2013-01-27 00:52:00,
2013-01-26 19:57:00,61.3,40.4,30.27,SW,225,1.6,2.5,46,0.00,,,0.00,VWS V14.01,2013-01-27 00:57:00,
2013-01-26 20:02:00,61.2,40.8,30.27,WNW,292,1.1,1.6,47,0.00,,,0.00,VWS V14.01,2013-01-27 01:02:00,
2013-01-26 20:07:00,61.0,40.6,30.27,WNW,292,1.3,2.0,47,0.00,,,0.00,VWS V14.01,2013-01-27 01:07:00,
2013-01-26 20:12:00,61.0,41.2,30.27,North,0,1.3,1.6,48,0.00,,,0.00,VWS V14.01,2013-01-27 01:12:00,
2013-01-26 20:17:00,61.0,41.2,30.27,West,270,0.9,0.9,48,0.00,,,0.00,VWS V14.01,2013-01-27 01:17:00,
2013-01-26 20:22:00,60.8,41.5,30.24,SSW,202,0.9,1.6,49,0.00,,,0.00,VWS V14.01,2013-01-27 01:22:00,
2013-01-26 20:27:00,60.6,41.4,30.24,WNW,292,0.0,0.9,49,0.00,,,0.00,VWS V14.01,2013-01-27 01:27:00,
2013-01-26 20:32:00,60.4,41.7,30.24,West,270,0.0,1.1,50,0.00,,,0.00,VWS V14.01,2013-01-27 01:32:00,
2013-01-26 20:37:00,60.4,41.7,30.27,SW,225,0.0,0.0,50,0.00,,,0.00,VWS V14.01,2013-01-27 01:37:00,
2013-01-26 20:42:00,60.3,41.6,30.27,West,270,1.6,1.6,50,0.00,,,0.00,VWS V14.01,2013-01-27 01:42:00,
2013-01-26 20:47:00,60.3,42.1,30.27,SSW,202,0.0,1.1,51,0.00,,,0.00,VWS V14.01,2013-01-27 01:47:00,
2013-01-26 20:52:00,60.1,41.9,30.27,WNW,292,0.0,0.0,51,0.00,,,0.00,VWS V14.01,2013-01-27 01:52:00,
2013-01-26 20:57:00,59.7,41.6,30.27,WSW,248,0.0,0.0,51,0.00,,,0.00,VWS V14.01,2013-01-27 01:57:00,
2013-01-26 21:02:00,59.5,41.9,30.27,WSW,248,0.0,0.0,52,0.00,,,0.00,VWS V14.01,2013-01-27 02:02:00,
2013-01-26 21:07:00,59.0,40.9,30.27,WSW,248,0.0,0.0,51,0.00,,,0.00,VWS V14.01,2013-01-27 02:07:00,
2013-01-26 21:12:00,58.8,41.2,30.27,WNW,292,0.0,0.0,52,0.00,,,0.00,VWS V14.01,2013-01-27 02:12:00,
2013-01-26 21:17:00,58.5,40.9,30.27,WNW,292,0.0,0.0,52,0.00,,,0.00,VWS V14.01,2013-01-27 02:17:00,
2013-01-26 21:22:00,58.6,41.1,30.27,WNW,292,0.0,0.0,52,0.00,,,0.00,VWS V14.01,2013-01-27 02:22:00,
2013-01-26 21:27:00,59.4,44.6,30.27,WNW,292,0.0,0.0,58,0.00,,,0.00,VWS V14.01,2013-01-27 02:27:00,
2013-01-26 21:32:00,59.2,43.5,30.27,WNW,292,0.0,0.0,56,0.00,,,0.00,VWS V14.01,2013-01-27 02:32:00,
2013-01-26 21:37:00,58.8,42.2,30.24,NW,315,0.0,0.0,54,0.00,,,0.00,VWS V14.01,2013-01-27 02:37:00,
2013-01-26 21:42:00,58.5,41.9,30.24,NW,315,0.0,0.0,54,0.00,,,0.00,VWS V14.01,2013-01-27 02:42:00,
2013-01-26 21:47:00,58.5,42.4,30.27,WNW,292,0.0,0.0,55,0.00,,,0.00,VWS V14.01,2013-01-27 02:47:00,
2013-01-26 21:52:00,58.5,42.4,30.27,NW,315,0.0,0.0,55,0.00,,,0.00,VWS V14.01,2013-01-27 02:52:00,
2013-01-26 21:57:00,58.3,42.7,30.27,WNW,292,0.0,0.0,56,0.00,,,0.00,VWS V14.01,2013-01-27 02:57:00,
2013-01-26 22:02:00,58.5,43.8,30.27,WNW,292,0.0,0.0,58,0.00,,,0.00,VWS V14.01,2013-01-27 03:02:00,
2013-01-26 22:07:00,58.5,43.3,30.27,WNW,292,0.9,0.9,57,0.00,,,0.00,VWS V14.01,2013-01-27 03:07:00,
2013-01-26 22:12:00,58.5,43.8,30.27,WNW,292,0.0,0.0,58,0.00,,,0.00,VWS V14.01,2013-01-27 03:12:00,
2013-01-26 22:17:00,58.5,43.3,30.27,NNW,338,0.0,0.0,57,0.00,,,0.00,VWS V14.01,2013-01-27 03:17:00,
2013-01-26 22:22:00,58.3,43.1,30.27,NNW,338,0.0,0.0,57,0.00,,,0.00,VWS V14.01,2013-01-27 03:22:00,
2013-01-26 22:27:00,57.9,42.3,30.27,NNW,338,0.0,0.0,56,0.00,,,0.00,VWS V14.01,2013-01-27 03:27:00,
2013-01-26 22:32:00,57.7,42.2,30.27,NNW,338,0.0,0.0,56,0.00,,,0.00,VWS V14.01,2013-01-27 03:32:00,
2013-01-26 22:37:00,57.6,42.5,30.27,NW,315,0.0,0.0,57,0.00,,,0.00,VWS V14.01,2013-01-27 03:37:00,
2013-01-26 22:42:00,57.4,42.3,30.27,NW,315,0.0,0.0,57,0.00,,,0.00,VWS V14.01,2013-01-27 03:42:00,
2013-01-26 22:47:00,57.4,42.7,30.27,NNW,338,0.9,0.9,58,0.00,,,0.00,VWS V14.01,2013-01-27 03:47:00,
2013-01-26 22:52:00,57.6,44.7,30.27,ENE,68,1.3,1.3,62,0.00,,,0.00,VWS V14.01,2013-01-27 03:52:00,
2013-01-26 22:57:00,57.7,45.2,30.27,NNW,338,0.0,0.0,63,0.00,,,0.00,VWS V14.01,2013-01-27 03:57:00,
2013-01-26 23:02:00,57.4,43.2,30.30,NW,315,0.0,0.0,59,0.00,,,0.00,VWS V14.01,2013-01-27 04:02:00,
2013-01-26 23:07:00,57.4,43.2,30.30,NNW,338,0.0,0.0,59,0.00,,,0.00,VWS V14.01,2013-01-27 04:07:00,
2013-01-26 23:12:00,57.2,43.0,30.30,NW,315,0.0,0.0,59,0.00,,,0.00,VWS V14.01,2013-01-27 04:12:00,
2013-01-26 23:17:00,57.2,43.0,30.30,NW,315,0.0,0.0,59,0.00,,,0.00,VWS V14.01,2013-01-27 04:17:00,
2013-01-26 23:23:00,57.2,43.0,30.30,NW,315,0.0,0.0,59,0.00,,,0.00,VWS V14.01,2013-01-27 04:23:00,
2013-01-26 23:28:00,57.0,42.8,30.30,NW,315,0.0,0.0,59,0.00,,,0.00,VWS V14.01,2013-01-27 04:28:00,
2013-01-26 23:33:00,56.7,42.5,30.30,NW,315,0.0,0.0,59,0.00,,,0.00,VWS V14.01,2013-01-27 04:33:00,
2013-01-26 23:38:00,56.7,42.5,30.27,NW,315,0.0,0.0,59,0.00,,,0.00,VWS V14.01,2013-01-27 04:38:00,
2013-01-26 23:42:00,56.5,42.8,30.27,NW,315,0.0,0.0,60,0.00,,,0.00,VWS V14.01,2013-01-27 04:42:00,
2013-01-26 23:48:00,56.3,42.2,30.27,NW,315,0.0,0.0,59,0.00,,,0.00,VWS V14.01,2013-01-27 04:48:00,
2013-01-26 23:53:00,55.9,42.3,30.27,WNW,292,0.0,0.0,60,0.00,,,0.00,VWS V14.01,2013-01-27 04:53:00,
2013-01-26 23:58:00,55.9,42.7,30.27,WNW,292,0.0,0.0,61,0.00,,,0.00,VWS V14.01,2013-01-27 04:58:00,